STARLINK-1398, 45699

Orbit data source: Space-Track

STARLINK-1398, 45699 is a payload satellite owned by SpaceX/Seattle (US) in LEO that was launched on Thu, 04 Jun 2020 UTC via an FALCON 9 launch vehicle from the Air Force Eastern Test Range (AFETR). Payload-class satellites include a variety of spacecraft equipped with specific instruments for various scientific and technological missions. These include communications satellites like Starlink; space stations such as the ISS; scientific satellites like the Hubble; Earth observation satellites from companies like Planet Labs, Umbra, and HawkEye 360; GPS; miniature CubeSats for education and research; and military/defense satellites.

Loading next visibility...
Identifier
45699, 2020-035AU
Orbit
LEO
Country
Flag of USUS
Related business
Manufacturer
SpaceX/Seattle
Mission
Partially operational Commercial Communications
Bus & Motor
STARLINK, Unknown motor
Mass
260 kg wet, ~248 kg dry
Launch date (UTC)
2020-06-04 (5 years ago)
Launch vehicle
FALCON 9
Launch site
Air Force Eastern Test Range (AFETR)
Object type
Payload
Rocket body
Debris
Shape & HBR
Box + 1 Pan, 10.1 m
Radar Cross Section
13.562 m², Large (>1 m²)

Expand to show TLE details & history
Last TLE update: 2 days ago

TLE from 2 days ago
0 STARLINK-1398
1 45699U 20035AU  25306.44679723  .00104497  00000-0  17146-2 0  9997
2 45699  53.0502 206.8762 0005255 109.5361 250.6215 15.51621082300558
Epoch: 2025-11-02T10:43Z
TLE epoch observation values (Epoch: 2025-11-02T10:43:23.280Z)
Latitude
-0.00007°
Longitude
4.06675°
Altitude
414.074 km
Speed
7.663 km/s
True Right ascension
13h 47m 30s
True Declination
0° 00' 00"
Sunlit
Object was in daylight at epoch
Visualization orbit readout
Latitude
Unknown
Longitude
Unknown
Altitude
Unknown
Speed
Unknown
Apparent Right ascension
Unknown
Apparent Declination
Unknown
Sunlit
N/A
Visualization observer readout
Local Sidereal Time
23:52:38
Azimuth
Unknown
Elevation
Unknown
Doppler factor
Unknown
Orbital elements
Apogee altitude
415.838 km
Perigee altitude
408.701 km
Semi-major axis
6,790.406 km
Eccentricity
0.00053
Inclination
53.0502°
RAAN
206.8762°
Arg. of periapsis
109.5361°
True anomaly
250.56471°
Mean anomaly
250.6215°
Eccentric anomaly
250.5931°
Mean motion
3.87882 °/min
Orbital period
92.81 mins
BSTAR
0.0017146
Loading maneuver chart data...
Computing Atmospheric mass density...
Loading historical data...
Loading historical data...
Loading historical data...
Loading historical data...
Loading historical data...
Loading historical data...
Loading historical data...

Documentation

Showing up to 5 results
|